This demonstration page uses our WeatherBlox Daily Observations layout. Learn more.

Left ArrowRight Arrow

34.02893, -84.19858

Hourly Observations for January 31, 2018

Temp ( °F °C ) Dew Point ( °F °C ) Humidity (%) Winds ( mph kmh ) Pressure ( in mb ) Visibility ( mi km ) Precip ( " mm )
12:53 am 00:53 Clear 31 -0.6 15 -9.4 52 52 Calm 30.34 1027 10 16 0.00 0.00
1:53 am 01:53 Clear 27 -2.8 18 -7.8 69 69 Calm 30.37 1028 10 16 0.00 0.00
3:53 am 03:53 Clear 25 -3.9 19 -7.2 78 78 Calm 30.37 1029 10 16 0.00 0.00
4:53 am 04:53 Clear 26 -3.3 19 -7.2 75 75 ESE 3 6 30.36 1028 10 16 0.00 0.00
5:53 am 05:53 Clear 29 -1.7 17 -8.3 61 61 VRB 3 6 30.37 1029 10 16 0.00 0.00
6:53 am 06:53 Clear 28 -2.2 17 -8.3 63 63 Calm 30.40 1029 10 16 0.00 0.00
7:53 am 07:53 Sunny 29 -1.7 17 -8.3 61 61 Calm 30.40 1030 10 16 0.00 0.00
8:53 am 08:53 Sunny 32 0 17 -8.3 54 54 VRB 5 7 30.40 1029 10 16 0.00 0.00
9:53 am 09:53 Sunny 37 2.8 17 -8.3 44 44 Calm 30.39 1029 10 16 0.00 0.00
10:53 am 10:53 Sunny 41 5 16 -8.9 36 36 SSE 7 11 30.37 1029 10 16 0.00 0.00
11:53 am 11:53 Sunny 45 7.2 17 -8.3 33 33 S 6 9 30.35 1028 10 16 0.00 0.00
12:53 pm 12:53 Sunny 48 8.9 16 -8.9 28 28 S 8 13 30.31 1026 10 16 0.00 0.00
1:53 pm 13:53 Sunny 51 10.6 17 -8.3 26 26 S 10 17 30.26 1025 10 16 0.00 0.00
2:53 pm 14:53 Sunny 53 11.7 15 -9.4 22 22 S 9 15 30.22 1023 10 16 0.00 0.00
3:53 pm 15:53 Sunny 54 12.2 15 -9.4 21 21 S 9 15 30.21 1023 10 16 0.00 0.00
4:53 pm 16:53 Sunny 53 11.7 15 -9.4 22 22 S 9 15 30.20 1023 10 16 0.00 0.00
5:53 pm 17:53 Sunny 51 10.6 16 -8.9 25 25 S 9 15 30.21 1023 10 16 0.00 0.00
6:53 pm 18:53 Clear 47 8.3 16 -8.9 29 29 SSE 3 6 30.22 1023 10 16 0.00 0.00
7:53 pm 19:53 Clear 46 7.8 18 -7.8 32 32 SSE 5 7 30.22 1023 10 16 0.00 0.00
8:53 pm 20:53 Clear 44 6.7 19 -7.2 37 37 SSE 6 9 30.21 1023 10 16 0.00 0.00
9:53 pm 21:53 Clear 44 6.7 20 -6.7 38 38 S 7 11 30.20 1023 10 16 0.00 0.00
10:53 pm 22:53 Clear 41 5 21 -6.1 45 45 S 6 9 30.20 1023 10 16 0.00 0.00
11:53 pm 23:53 Clear 41 5 20 -6.7 43 43 S 5 7 30.19 1022 10 16 0.00 0.00

Powered by AerisWeather